timestamp,surface_pressure_avg,surface_temp_avg,battery_voltage,lat,long
2018-10-25 00:00:00+00:00,372.538,10.3,13.05,47.84626,-54.09684
2018-10-25 00:10:00+00:00,368.463,10.3,12.97,47.84626,-54.09684
2018-10-25 00:20:00+00:00,359.4947,10.28,13.05,47.84626,-54.09684
2018-10-25 00:30:00+00:00,356.748,10.29,13.05,47.84626,-54.09684
2018-10-25 00:40:00+00:00,359.113,10.3,13.05,47.84626,-54.09684
2018-10-25 00:50:00+00:00,347.3479,10.29,13.13,47.84626,-54.09684
2018-10-25 01:00:00+00:00,340.2097,10.17,13.05,47.84626,-54.09684
2018-10-25 01:10:00+00:00,343.9913,10.1,12.97,47.84626,-54.09684
2018-10-25 01:20:00+00:00,339.7629,10.1,13.05,47.84626,-54.09684
2018-10-25 01:30:00+00:00,329.8697,10.1,13.05,47.84626,-54.09684
2018-10-25 01:40:00+00:00,328.4063,10.1,13.05,47.84626,-54.09684
2018-10-25 01:50:00+00:00,323.2513,9.95,13.05,47.84626,-54.09684
2018-10-25 02:00:00+00:00,306.2496,9.9,13.05,47.84626,-54.09684
2018-10-25 02:10:00+00:00,300.6713,9.92,12.97,47.84626,-54.09684
2018-10-25 02:20:00+00:00,295.3079,9.8,13.05,47.84626,-54.09684
2018-10-25 02:30:00+00:00,280.7498,9.72,13.05,47.84626,-54.09684
2018-10-25 02:40:00+00:00,274.0797,9.7,13.05,47.84626,-54.09684
2018-10-25 02:50:00+00:00,275.0781,9.7,13.05,47.84626,-54.09684
2018-10-25 03:00:00+00:00,260.443,9.7,12.97,47.84626,-54.09684
2018-10-25 03:10:00+00:00,246.1948,9.7,12.97,47.84626,-54.09684
2018-10-25 03:20:00+00:00,251.2297,9.7,13.05,47.84626,-54.09684
2018-10-25 03:30:00+00:00,245.8331,9.7,13.05,47.84626,-54.09684
2018-10-25 03:40:00+00:00,226.5081,9.7,13.05,47.84626,-54.09684
2018-10-25 03:50:00+00:00,215.4131,9.6,13.05,47.84626,-54.09684
2018-10-25 04:00:00+00:00,217.7231,9.6,12.97,47.84626,-54.09684
2018-10-25 04:10:00+00:00,211.0414,9.6,12.89,47.84626,-54.09684
2018-10-25 04:20:00+00:00,199.6748,9.53,12.97,47.84626,-54.09684
2018-10-25 04:30:00+00:00,203.2648,9.5,12.97,47.84626,-54.09684
2018-10-25 04:40:00+00:00,199.6465,9.5,13.05,47.84626,-54.09684
2018-10-25 04:50:00+00:00,185.8065,9.3,13.05,47.84626,-54.09684
2018-10-25 05:00:00+00:00,182.4114,9.58,12.97,47.84626,-54.09684
2018-10-25 05:10:00+00:00,186.4565,9.7,12.89,47.84626,-54.09684
2018-10-25 05:20:00+00:00,182.9948,9.7,12.97,47.84626,-54.09684
2018-10-25 05:30:00+00:00,176.4398,9.7,12.97,47.84626,-54.09684
2018-10-25 05:40:00+00:00,182.7598,9.7,13.05,47.84626,-54.09684
2018-10-25 05:50:00+00:00,189.1848,9.8,13.05,47.84626,-54.09684
2018-10-25 06:00:00+00:00,189.4382,9.8,12.97,47.84626,-54.09684
2018-10-25 06:10:00+00:00,194.4648,9.7,12.89,47.84626,-54.09684
2018-10-25 06:20:00+00:00,204.6048,9.8,12.97,47.84626,-54.09684
2018-10-25 06:30:00+00:00,204.1731,9.74,12.97,47.84626,-54.09684
2018-10-25 06:40:00+00:00,201.7931,9.54,13.05,47.84626,-54.09684
2018-10-25 06:50:00+00:00,211.9781,9.79,13.05,47.84626,-54.09684
2018-10-25 07:00:00+00:00,220.8197,9.77,12.97,47.84626,-54.09684
2018-10-25 07:10:00+00:00,223.3748,9.5,12.89,47.84626,-54.09684
2018-10-25 07:20:00+00:00,229.3031,9.69,12.97,47.84626,-54.09684
2018-10-25 07:30:00+00:00,237.5898,9.7,12.97,47.84626,-54.09684
2018-10-25 07:40:00+00:00,245.7631,9.6,12.97,47.84626,-54.09684
2018-10-25 07:50:00+00:00,249.4964,9.72,13.05,47.84626,-54.09684
2018-10-25 08:00:00+00:00,251.5165,9.76,12.97,47.84626,-54.09684
2018-10-25 08:10:00+00:00,261.0247,9.73,12.89,47.84626,-54.09684
2018-10-25 08:20:00+00:00,265.7964,9.76,12.97,47.84626,-54.09684
2018-10-25 08:30:00+00:00,262.1915,9.5,12.97,47.84626,-54.09684
2018-10-25 08:40:00+00:00,266.3664,9.51,12.97,47.84626,-54.09684
2018-10-25 08:50:00+00:00,282.9781,9.5,13.05,47.84626,-54.09684
2018-10-25 09:00:00+00:00,288.2664,9.5,12.97,47.84626,-54.09684
2018-10-25 09:10:00+00:00,288.5464,9.5,12.89,47.84626,-54.09684
2018-10-25 09:20:00+00:00,296.5864,9.5,12.97,47.84626,-54.09684
2018-10-25 09:30:00+00:00,312.5397,9.6,12.97,47.84626,-54.09684
2018-10-25 09:40:00+00:00,319.5613,9.6,12.97,47.84626,-54.09684
2018-10-25 09:50:00+00:00,316.7947,9.5,13.05,47.84626,-54.09684
2018-10-25 10:00:00+00:00,323.678,9.5,12.97,47.84626,-54.09684
2018-10-25 10:10:00+00:00,342.7513,9.5,12.89,47.84626,-54.09684
2018-10-25 10:20:00+00:00,355.0729,9.55,12.97,47.84626,-54.09684
2018-10-25 10:30:00+00:00,352.7746,9.58,12.97,47.84626,-54.09684
2018-10-25 10:40:00+00:00,356.7162,9.73,12.97,47.84626,-54.09684
2018-10-25 10:50:00+00:00,372.2245,9.8,13.05,47.84626,-54.09684
2018-10-25 11:00:00+00:00,376.2596,9.7,12.97,47.84626,-54.09684
2018-10-25 11:10:00+00:00,372.8697,9.7,12.89,47.84626,-54.09684
2018-10-25 11:20:00+00:00,376.9612,9.7,12.97,47.84626,-54.09684
2018-10-25 11:30:00+00:00,382.6013,9.77,12.97,47.84626,-54.09684
2018-10-25 11:40:00+00:00,376.8829,9.79,13.05,47.84626,-54.09684
2018-10-25 11:50:00+00:00,371.4979,9.77,13.05,47.84626,-54.09684
2018-10-25 12:00:00+00:00,385.2363,9.8,12.97,47.84626,-54.09684
2018-10-25 12:10:00+00:00,387.6163,9.7,12.89,47.84626,-54.09684
2018-10-25 12:20:00+00:00,373.8079,9.6,12.97,47.84626,-54.09684
2018-10-25 12:30:00+00:00,375.3196,9.77,13.05,47.84626,-54.09684
2018-10-25 12:40:00+00:00,383.4662,9.77,13.05,47.84626,-54.09684
2018-10-25 12:50:00+00:00,377.2913,9.68,13.05,47.84626,-54.09684
2018-10-25 13:00:00+00:00,371.1596,9.7,12.97,47.84626,-54.09684
2018-10-25 13:10:00+00:00,375.6962,9.7,12.97,47.84626,-54.09684
2018-10-25 13:20:00+00:00,375.9963,9.7,13.05,47.84626,-54.09684
2018-10-25 13:30:00+00:00,364.3696,9.7,12.97,47.84626,-54.09684
2018-10-25 13:40:00+00:00,364.5513,9.7,13.05,47.84626,-54.09684
2018-10-25 13:50:00+00:00,364.9846,9.7,13.05,47.84626,-54.09684
2018-10-25 14:00:00+00:00,351.4497,9.7,12.97,47.84626,-54.09684
2018-10-25 14:10:00+00:00,340.2629,9.68,12.89,47.84626,-54.09684
2018-10-25 14:20:00+00:00,340.4763,9.69,13.05,47.84626,-54.09684
2018-10-25 14:30:00+00:00,328.1564,9.7,13.05,47.84626,-54.09684
2018-10-25 14:40:00+00:00,308.058,9.7,13.05,47.84626,-54.09684
2018-10-25 14:50:00+00:00,304.8264,9.7,13.13,47.84626,-54.09684
2018-10-25 15:00:00+00:00,301.4397,9.7,13.13,47.84626,-54.09684
2018-10-25 15:10:00+00:00,287.123,9.7,13.05,47.84626,-54.09684
2018-10-25 15:20:00+00:00,273.7498,9.68,13.13,47.84626,-54.09684
2018-10-25 15:30:00+00:00,268.5681,9.7,13.13,47.84626,-54.09684
2018-10-25 15:40:00+00:00,257.5598,9.7,13.21,47.84626,-54.09684
2018-10-25 15:50:00+00:00,244.8465,9.7,13.21,47.84626,-54.09684
2018-10-25 16:00:00+00:00,236.0881,9.7,13.13,47.84626,-54.09684
2018-10-25 16:10:00+00:00,228.8997,9.7,13.05,47.84626,-54.09684
2018-10-25 16:20:00+00:00,220.8681,9.7,13.05,47.84626,-54.09684
2018-10-25 16:30:00+00:00,211.0364,9.7,13.05,47.84626,-54.09684
2018-10-25 16:40:00+00:00,206.2764,9.7,13.05,47.84626,-54.09684
2018-10-25 16:50:00+00:00,202.6981,9.76,13.13,47.84626,-54.09684
2018-10-25 17:00:00+00:00,196.9398,9.87,13.05,47.84626,-54.09684
2018-10-25 17:10:00+00:00,192.6765,9.9,12.97,47.84626,-54.09684
2018-10-25 17:20:00+00:00,189.0048,9.9,13.05,47.84626,-54.09684
2018-10-25 17:30:00+00:00,184.1831,9.8,13.05,47.84626,-54.09684
2018-10-25 17:40:00+00:00,178.1714,9.8,13.05,47.84626,-54.09684
2018-10-25 17:50:00+00:00,173.9865,9.8,13.13,47.84626,-54.09684
2018-10-25 18:00:00+00:00,170.8165,9.8,13.05,47.84626,-54.09684
2018-10-25 18:10:00+00:00,168.7432,9.8,12.97,47.84626,-54.09684
2018-10-25 18:20:00+00:00,170.2498,9.8,13.05,47.84626,-54.09684
2018-10-25 18:30:00+00:00,174.3031,9.8,13.05,47.84626,-54.09684
2018-10-25 18:40:00+00:00,179.7098,9.8,13.05,47.84626,-54.09684
2018-10-25 18:50:00+00:00,182.8282,9.73,13.05,47.84626,-54.09684
2018-10-25 19:00:00+00:00,182.6715,9.8,12.97,47.84626,-54.09684
2018-10-25 19:10:00+00:00,194.8515,9.8,12.89,47.84626,-54.09684
2018-10-25 19:20:00+00:00,205.5948,9.8,12.97,47.84626,-54.09684
2018-10-25 19:30:00+00:00,204.1998,9.8,12.97,47.84626,-54.09684
2018-10-25 19:40:00+00:00,210.5448,9.8,13.05,47.84626,-54.09684
2018-10-25 19:50:00+00:00,219.9481,9.8,13.05,47.84626,-54.09684
2018-10-25 20:00:00+00:00,221.2014,9.8,12.97,47.84626,-54.09684
2018-10-25 20:10:00+00:00,226.3581,9.8,12.89,47.84626,-54.09684
2018-10-25 20:20:00+00:00,237.2714,9.8,12.97,47.84626,-54.09684
2018-10-25 20:30:00+00:00,241.8847,9.89,12.97,47.84626,-54.09684
2018-10-25 20:40:00+00:00,245.0348,9.9,12.97,47.84626,-54.09684
2018-10-25 20:50:00+00:00,255.3431,9.9,13.05,47.84626,-54.09684
2018-10-25 21:00:00+00:00,264.563,9.97,12.97,47.84626,-54.09684
2018-10-25 21:10:00+00:00,269.0414,9.99,12.89,47.84626,-54.09684
2018-10-25 21:20:00+00:00,275.5381,9.99,12.97,47.84626,-54.09684
2018-10-25 21:30:00+00:00,287.598,9.9,12.97,47.84626,-54.09684
2018-10-25 21:40:00+00:00,293.9381,9.99,12.97,47.84626,-54.09684
2018-10-25 21:50:00+00:00,295.3064,10.0,12.97,47.84626,-54.09684
2018-10-25 22:00:00+00:00,304.6763,9.98,12.97,47.84626,-54.09684
2018-10-25 22:10:00+00:00,319.7247,9.99,12.89,47.84626,-54.09684
2018-10-25 22:20:00+00:00,324.4813,9.93,12.97,47.84626,-54.09684
2018-10-25 22:30:00+00:00,329.8746,9.9,12.97,47.84626,-54.09684
2018-10-25 22:40:00+00:00,346.7279,9.95,12.97,47.84626,-54.09684
2018-10-25 22:50:00+00:00,352.7613,9.99,12.97,47.84626,-54.09684
2018-10-25 23:00:00+00:00,352.973,10.0,12.97,47.84626,-54.09684
2018-10-25 23:10:00+00:00,355.0996,10.0,12.89,47.84626,-54.09684
2018-10-25 23:20:00+00:00,358.4897,10.0,12.97,47.84626,-54.09684
2018-10-25 23:30:00+00:00,359.8463,10.0,12.97,47.84626,-54.09684
2018-10-25 23:40:00+00:00,369.5796,9.9,12.97,47.84626,-54.09684
2018-10-25 23:50:00+00:00,381.703,9.99,12.97,47.84626,-54.09684
